Home   Weather   Barnaul   Past weeks

Flag for Russia Past Weather in Barnaul, Russia — Yesterday and Last 2 Weeks

Now
52 °F

Clear.


Feels Like: 51 °F
Forecast: 40 / 61 °F
Wind: 3 mph from Southeast

Location: Barnaul Airport

Current Time: Sep 28, 2016 at 10:37:31 PM

Latest Report: Sep 28, 2016 at 10:00 PM


Visibility: 6 mi

Pressure: 29.98 "Hg

Humidity: 44%

Dew Point: 30 °F

Location of BarnaulLocation

Past Weather in Barnaul — Graph

°F

Barnaul Temperature Yesterday

Maximum temperature yesterday: 59 °F (at 5:00 PM)
Minimum temperature yesterday: 34 °F (at 7:30 AM)
Average temperature yesterday: 46 °F

High & Low Weather Summary for the Past Weeks

 TemperatureHumidityPressure
High75 °F (Sep 17, 3:30 PM)100% (Sep 23, 10:00 AM)30.21 "Hg (Sep 23, 10:00 AM)
Low32 °F (Sep 26, 7:30 AM)26% (Sep 25, 4:30 PM)29.86 "Hg (Sep 17, 2:30 PM)
Average56 °F64%30.06 "Hg
* Reported Sep 13 9:00 PM — Sep 28 9:00 PM, Barnaul, Weather by CustomWeather, © 2016

Note: Actual official high and low records may vary slightly from our data, if they occured in-between our weather recording intervals... More about our weather records

Advertising

Barnaul Weather History for the Previous 24 Hours

Scroll right to see more
 ConditionsComfort  
Time TempWeatherWind HumidityBarometerVisibility
9:00 PM
Wed, Sep 28
52 °FClear.3 mph47%30.01 "Hg6 mi
8:30 PM52 °FClear.1 mph47%30.01 "Hg4 mi
8:00 PM52 °FClear.3 mph47%30.01 "Hg4 mi
7:30 PM52 °FClear.3 mph47%30.01 "Hg6 mi
7:00 PM54 °FSunny.3 mph47%30.01 "Hg10 mi
6:30 PM55 °FSunny.6 mph41%30.01 "Hg10 mi
6:00 PM57 °FSunny.6 mph41%30.01 "Hg10 mi
5:30 PM59 °FSunny.6 mph39%30.01 "Hg10 mi
5:00 PM59 °FSunny.6 mph36%30.01 "Hg10 mi
4:30 PM61 °FSunny.1 mph29%30.01 "Hg10 mi
4:00 PM59 °FPassing clouds.3 mph34%30.04 "HgN/A
3:30 PM59 °FPassing clouds.3 mph36%30.04 "HgN/A
3:00 PM61 °FSunny.1 mph31%30.04 "Hg10 mi
2:30 PM61 °FSunny.1 mph29%30.04 "Hg10 mi
2:00 PM59 °FSunny.6 mph31%30.07 "Hg10 mi
1:30 PM59 °FSunny.1 mph34%30.07 "Hg10 mi
1:00 PM59 °FSunny.1 mph34%30.07 "Hg10 mi
12:30 PM57 °FSunny.1 mph39%30.07 "Hg10 mi
12:00 PM57 °FSunny.No wind39%30.09 "Hg10 mi
11:30 AM55 °FSunny.No wind44%30.09 "Hg10 mi
11:00 AM54 °FSunny.No wind51%30.09 "Hg10 mi
10:30 AM52 °FClear.1 mph54%30.09 "HgN/A
10:00 AM48 °FClear.3 mph58%30.09 "Hg6 mi
9:30 AM46 °FClear.3 mph66%30.09 "Hg4 mi
9:00 AM45 °FClear.1 mph66%30.09 "Hg4 mi
8:30 AM43 °FClear.6 mph71%30.09 "Hg4 mi
8:00 AM43 °FClear.6 mph66%30.09 "Hg5 mi
7:30 AM41 °FSunny.3 mph70%30.09 "Hg10 mi
7:00 AM43 °FClear.6 mph66%30.09 "Hg10 mi
6:30 AM45 °FClear.6 mph61%30.09 "Hg10 mi
6:00 AM45 °FClear.6 mph57%30.09 "Hg10 mi
5:30 AM45 °FClear.6 mph61%30.09 "Hg10 mi
5:00 AM45 °FClear.6 mph61%30.09 "HgN/A
4:30 AM45 °FClear.6 mph61%30.09 "Hg6 mi
4:00 AM45 °FClear.6 mph61%30.09 "Hg10 mi
3:30 AM45 °FClear.6 mph61%30.09 "Hg10 mi
3:00 AM45 °FClear.6 mph61%30.09 "Hg10 mi
2:30 AM45 °FClear.6 mph61%30.09 "Hg10 mi
2:00 AM46 °FClear.6 mph57%30.12 "Hg10 mi
1:30 AM45 °FClear.3 mph61%30.12 "Hg10 mi
1:00 AM45 °FClear.6 mph61%30.12 "Hg10 mi
12:30 AM46 °FClear.3 mph57%30.12 "Hg10 mi
12:00 AM46 °FClear.3 mph62%30.12 "Hg10 mi
11:30 PM
Tue, Sep 27
46 °FClear.3 mph62%30.12 "Hg10 mi
11:00 PM46 °FClear.3 mph57%30.12 "Hg10 mi
10:30 PM46 °FClear.6 mph57%30.12 "Hg10 mi
10:00 PM48 °FClear.6 mph54%30.12 "Hg10 mi
Weather by CustomWeather, © 2016

See weather overviewHow to use our weather pages